Orbital Elements at Epoch 2459200.5 (2020-Dec-17.0) TDB
Reference: JPL 16 (heliocentric ecliptic J2000)
Element | Value | Uncertainty (1-sigma) | Units |
e | .1183351569195038 | 4.9803e-08 | |
a | 2.705898003746225 | 1.5253e-08 | au |
q | 2.385695138864743 | 1.3756e-07 | au |
i | 12.3040702841226 | 6.0243e-06 | deg |
node | 336.3433130385002 | 1.8285e-05 | deg |
peri | 40.45193025657228 | 2.8289e-05 | deg |
M | 132.5687531885847 | 2.343e-05 | deg |
tp | 2458601.806929846030 (2019-Apr-28.30692985) | 0.00010276 | TDB |
period | 1625.794163944722 4.45 | 1.3747e-05 3.764e-08 | d yr |
n | .2214302449742588 | 1.8723e-09 | deg/d |
Q | 3.026100868627706 | 1.7058e-08 | au |
|
| | Orbit Determination Parameters
Additional Information
|